Location: Ravensburg
(47.7866°N, 9.6124°E)
Time: 23:29:57
(UTC+01:00)

Gurwin Techsat 1B - Visible Passes

Search period start: 14 March 2026 00:00
Search period end: 24 March 2026 00:00
Orbit: 809 x 812 km, 99.0° (Epoch: 14 March)

Date Brightness Start Highest point End Pass type
(mag) Time Alt. Az. Time Alt. Az. Time Alt. Az.
14 Mar 11.8 03:53:56 10° ENE 03:54:32 10° E 03:55:07 10° E visible
14 Mar 8.9 05:30:00 10° NNE 05:35:19 71° ESE 05:40:36 10° S visible
15 Mar 9.8 05:06:34 10° NNE 05:11:40 45° E 05:16:43 10° S visible
16 Mar 10.6 04:43:19 10° NE 04:47:55 29° E 04:52:29 10° SSE visible
17 Mar 11.3 04:20:25 10° NE 04:24:05 19° E 04:27:45 10° SE visible
17 Mar 8.6 05:59:10 10° N 06:04:27 69° WNW 06:09:42 10° SSW visible
18 Mar 11.6 03:58:27 10° ENE 04:00:10 11° E 04:01:52 10° ESE visible
18 Mar 8.8 05:35:33 10° NNE 05:40:53 78° ESE 05:46:12 10° SSW visible
19 Mar 9.6 05:12:05 10° NNE 05:17:15 50° E 05:22:22 10° S visible
20 Mar 10.5 04:48:48 10° NNE 04:53:31 32° E 04:58:13 10° SSE visible
21 Mar 11.2 04:25:47 10° NE 04:29:43 21° E 04:33:36 10° SE visible
22 Mar 11.5 04:03:29 10° ENE 04:05:48 13° E 04:08:07 10° ESE visible
22 Mar 8.7 05:41:06 10° NNE 05:46:27 85° ESE 05:51:45 10° SSW visible
23 Mar 9.4 05:17:36 10° NNE 05:22:49 55° E 05:28:00 10° S visible
